Theta_e
277 276 276 276 276 275 275 275 275 274 274 274 274 275 275 275 275 274 274 274 274 274 274 274 274 274 274 273 273 273 273 273 273 273 274 274 275 275 276 277 278 280
276 276 276 275 275 275 274 274 274 274 274 274 274 274 274 274 274 274 274 274 274 274 274 273 273 273 273 273 273 273 273 273 273 273 273 273 274 274 275 275 276 278
276 276 275 275 274 274 274 274 274 273 273 274 274 274 274 274 274 274 274 273 273 273 273 273 273 273 273 273 273 273 272 272 272 273 273 273 273 274 274 275 276 277
276 275 275 274 274 274 273 273 273 273 273 273 273 273 273 273 273 273 273 273 273 273 273 273 273 273 273 273 273 272 272 272 272 272 272 272 273 273 274 274 275 277
275 275 274 273 273 273 273 273 273 273 273 273 273 273 273 273 273 272 272 272 272 272 273 273 273 273 273 272 272 272 272 272 272 272 272 272 273 273 274 275 276 277
274 274 273 273 273 273 272 272 272 272 272 272 272 272 272 272 272 272 272 272 272 272 272 272 272 272 272 272 272 271 271 271 272 272 272 272 273 273 274 276 277 279
273 273 273 273 272 272 272 272 272 272 272 272 272 272 272 272 272 271 272 272 272 271 271 272 272 272 271 271 271 271 271 271 272 272 272 272 273 273 274 275 276 278
273 273 272 272 272 272 272 272 272 272 271 271 271 271 271 271 271 271 271 271 271 271 271 270 271 271 271 271 271 271 271 271 272 272 272 272 273 273 273 273 274 276
273 273 272 272 272 272 271 271 271 271 271 271 271 271 271 270 270 270 270 270 270 270 270 270 270 270 270 270 271 271 271 271 272 272 273 273 273 273 273 273 274 275
273 272 272 271 271 271 271 271 270 270 270 270 270 270 269 269 269 269 269 269 269 269 269 269 269 269 269 270 270 270 271 271 271 272 272 273 274 274 274 274 275 276
272 272 271 271 270 270 270 270 270 270 269 269 268 268 268 268 268 268 268 268 268 268 268 268 268 268 269 269 269 270 270 271 271 271 271 272 273 274 274 274 275 277
272 271 270 269 269 269 269 269 269 268 268 267 267 267 267 267 267 267 267 267 267 267 267 267 268 268 268 268 269 269 270 270 271 271 271 272 272 273 273 273 274 275
270 270 269 269 268 269 268 268 267 267 267 266 266 266 266 266 266 266 266 266 266 267 267 267 267 267 268 268 268 269 270 270 271 271 271 272 272 273 273 273 274 274
269 268 268 268 268 268 267 267 267 266 266 266 265 265 265 265 265 266 266 266 266 266 267 267 267 268 268 268 269 269 270 270 271 271 271 272 272 272 273 273 274 275
268 268 268 267 267 267 267 267 266 265 265 265 265 265 265 265 265 265 266 266 266 267 267 267 267 268 268 268 269 270 270 271 271 271 271 272 272 272 273 273 274 275
267 267 267 266 266 266 266 266 265 264 264 264 264 264 265 265 265 266 266 266 267 267 267 267 268 268 269 270 271 272 272 272 273 273 273 273 273 273 274 274 275 276
266 266 266 266 266 266 266 265 264 264 264 264 264 265 265 265 266 266 267 267 267 267 267 268 268 269 269 271 272 273 274 274 274 274 275 275 275 275 275 275 276 277
265 265 265 266 266 266 265 264 263 263 264 264 264 265 265 266 266 266 266 267 267 267 267 268 268 269 270 272 273 274 275 275 276 276 276 276 276 276 276 276 276 276
264 265 266 266 265 265 264 263 263 263 263 264 264 265 265 266 266 266 266 266 266 266 266 267 267 268 270 271 273 274 275 276 276 277 277 277 277 276 276 276 276 276
264 265 266 265 264 264 263 263 263 263 263 264 264 265 265 265 265 265 265 265 265 266 266 266 267 268 270 271 273 274 275 276 277 278 278 277 277 277 276 276 276 276
265 265 265 265 264 263 262 262 263 263 263 264 264 265 265 265 265 265 265 265 265 265 266 266 267 268 270 272 273 275 276 277 277 278 278 278 278 277 277 277 276 276
266 265 264 264 263 262 262 262 262 263 263 264 264 264 264 264 264 264 264 264 265 265 266 266 267 268 270 272 273 275 276 277 278 278 279 278 278 277 277 277 277 277
266 264 263 262 262 262 262 262 262 263 263 263 264 264 264 264 264 264 264 265 265 266 266 267 268 269 270 272 273 275 276 278 278 279 279 278 278 278 277 277 277 277
266 264 262 261 261 261 261 262 262 262 263 263 263 263 263 263 264 264 265 265 266 267 267 268 269 269 271 272 274 275 276 277 278 278 279 278 278 277 277 277 277 277
265 263 262 261 261 261 261 262 262 262 262 262 263 263 263 263 264 264 265 266 267 267 268 268 269 269 271 272 274 275 276 276 277 278 279 279 278 278 277 277 277 277
265 263 262 261 261 261 261 261 262 262 262 262 262 262 263 263 264 265 266 267 267 268 268 269 269 270 271 272 273 274 275 276 277 278 278 279 279 278 278 277 277 277
Wind_Speed
18 19 20 22 23 25 26 28 30 31 33 34 35 39 41 42 41 41 41 41 39 39 40 40 40 39 39 39 37 37 39 40 41 41 39 39 39 39 41 42 41 42
18 20 21 23 25 26 27 28 30 32 34 35 36 38 41 42 42 42 42 42 41 41 41 41 41 40 39 39 38 38 40 41 42 41 39 40 42 41 43 43 42 43
19 20 22 23 25 27 28 29 30 32 34 36 36 37 39 42 43 43 43 42 43 44 43 42 41 40 39 38 37 38 40 41 41 40 39 41 41 41 43 42 41 42
20 21 22 24 25 27 29 30 32 32 33 35 37 38 39 40 41 43 44 43 43 43 43 42 41 40 39 37 37 38 40 41 41 39 39 41 40 40 42 41 41 42
20 21 22 24 25 27 29 30 32 33 34 35 36 37 38 39 40 42 44 43 42 42 42 41 40 39 37 37 38 39 39 41 40 38 39 41 40 40 41 39 40 41
20 21 23 24 25 26 28 30 31 33 34 35 36 37 37 38 39 40 41 41 40 40 41 40 40 39 37 36 37 37 38 39 38 36 36 38 37 37 37 36 36 37
21 22 23 24 25 26 28 30 31 32 33 34 35 36 36 37 38 38 37 38 39 39 38 38 39 38 36 34 33 33 33 33 33 31 32 33 33 35 37 36 35 36
22 23 23 24 25 26 27 29 30 31 32 33 34 35 34 34 35 36 36 36 37 38 37 36 37 36 34 32 31 31 31 30 29 29 30 31 31 33 36 36 36 37
22 22 23 23 24 26 26 27 29 30 30 31 33 34 34 33 34 34 35 36 36 37 36 34 34 33 32 31 31 32 32 31 31 30 31 32 32 32 33 33 33 36
21 22 22 23 24 24 25 26 27 28 29 30 32 33 33 33 33 33 34 35 35 34 34 33 33 33 33 32 32 33 33 32 32 32 32 32 32 31 30 29 29 31
21 22 23 25 25 24 25 27 28 29 30 31 30 30 31 32 32 32 32 32 32 32 33 34 34 34 34 34 33 33 33 33 33 33 32 32 32 30 28 29 31 31
22 24 25 26 25 25 26 28 30 30 29 28 28 29 32 32 31 30 30 30 32 33 34 35 35 34 34 34 34 33 33 33 33 33 33 32 32 31 31 32 35 35
23 24 24 24 24 25 27 28 30 32 29 29 30 30 31 31 30 31 31 31 33 34 34 35 35 35 34 34 34 34 33 33 33 33 33 32 31 31 31 31 32 34
22 23 23 22 23 26 30 31 32 34 33 32 33 32 30 29 30 33 34 34 33 33 34 34 34 35 34 33 33 33 33 33 33 33 33 32 31 31 31 31 31 32
21 22 22 22 25 29 32 33 34 35 35 34 35 35 34 33 33 34 35 35 33 32 32 33 33 33 32 31 32 32 31 31 31 32 31 31 30 30 30 31 31 31
19 21 22 24 27 30 31 33 34 35 34 34 36 36 35 37 38 35 32 31 31 31 31 32 32 31 31 32 34 34 32 31 31 31 30 30 29 29 29 30 31 31
19 20 23 25 27 29 31 32 33 33 34 34 35 36 35 35 34 30 27 28 29 31 31 32 32 32 32 35 37 37 35 32 31 31 31 29 29 29 29 29 28 29
18 20 23 25 27 29 31 32 32 33 34 34 35 35 34 32 29 27 28 29 30 30 31 32 33 34 35 38 39 38 37 35 31 30 30 30 28 27 29 29 28 28
18 21 24 26 27 29 30 31 32 32 32 34 34 33 30 29 29 29 29 29 29 31 32 33 35 37 38 39 40 39 38 36 32 29 28 29 27 25 26 29 29 28
19 22 25 26 27 29 30 31 31 32 32 31 30 29 29 30 30 30 29 29 30 32 34 35 37 39 39 40 40 39 38 36 34 31 27 24 23 23 25 28 29 28
21 23 25 27 28 29 30 31 31 31 31 29 27 28 29 29 30 31 32 33 33 35 36 36 38 41 41 41 41 39 37 36 34 33 28 21 19 21 25 27 29 29
22 23 24 26 28 30 30 31 31 31 30 29 28 28 28 28 30 32 33 35 36 36 36 38 42 43 42 41 40 38 36 34 32 32 30 23 18 20 24 27 28 29
22 23 24 26 27 29 30 31 31 30 29 29 29 29 29 30 33 33 33 34 36 37 37 40 44 44 42 41 39 36 34 32 30 30 30 26 21 22 26 26 27 30
21 22 23 24 26 27 29 30 30 30 30 28 29 30 31 32 33 34 34 34 35 38 38 39 42 44 42 39 36 35 35 34 30 28 30 29 23 22 27 27 26 30
20 20 21 23 25 26 28 29 30 31 30 29 29 30 31 33 32 33 35 35 35 38 38 38 41 44 40 35 34 36 36 34 31 27 30 30 23 19 22 24 25 28
18 20 21 22 24 25 27 28 29 30 31 31 31 30 30 32 31 32 34 36 37 37 37 39 40 39 35 34 36 37 36 34 31 26 28 30 25 20 19 20 23 26
Wind_Direction
319 321 321 317 312 309 307 307 309 309 309 308 306 305 305 306 306 306 305 303 301 300 299 298 296 294 292 289 287 284 283 282 281 278 275 272 269 269 269 268 269 270
323 325 322 317 312 309 308 309 310 309 307 306 304 304 305 305 306 306 305 304 303 301 299 299 297 294 292 290 287 284 284 283 281 278 275 271 269 269 268 268 268 268
327 326 322 316 312 311 312 312 310 308 306 305 305 304 305 305 306 306 305 304 303 302 300 299 298 295 292 290 287 284 283 282 280 278 275 271 270 268 268 268 267 265
327 325 321 316 314 313 314 312 310 309 307 305 305 305 305 305 305 305 305 304 303 302 302 300 298 297 292 289 288 284 282 282 280 278 275 272 269 268 268 267 265 263
326 323 320 317 316 316 314 312 310 310 308 306 305 306 305 304 304 305 305 304 303 302 302 300 298 297 293 290 289 285 282 282 280 276 274 271 270 268 267 265 263 262
325 323 321 319 318 316 313 311 310 309 308 307 306 305 305 305 305 304 303 303 302 301 301 300 298 296 294 292 289 285 283 282 280 276 271 270 270 268 266 265 264 262
326 324 323 321 318 316 314 312 311 309 307 307 306 305 306 305 304 303 302 302 302 301 299 298 297 295 294 292 286 284 284 282 280 277 271 269 269 267 266 266 266 266
328 325 324 320 317 317 315 313 312 310 309 308 307 307 307 305 303 303 303 302 300 300 297 294 294 293 292 290 285 283 283 282 281 278 275 273 269 267 267 267 265 265
328 326 324 321 319 318 315 314 313 312 311 309 308 309 308 305 304 303 303 303 300 297 296 293 292 291 289 287 285 282 281 281 281 279 278 276 270 266 267 266 263 261
330 327 323 323 322 318 314 314 313 313 314 312 309 309 309 307 306 303 301 302 299 295 294 291 290 291 288 285 284 281 279 279 280 279 277 276 273 269 266 265 262 259
331 330 329 331 327 319 316 317 316 315 314 315 313 309 309 308 306 304 301 298 295 293 293 292 290 289 287 285 284 282 278 276 278 278 275 275 274 272 270 270 268 266
332 333 333 331 325 319 318 317 319 319 315 314 314 312 311 309 304 302 299 296 295 293 292 292 290 287 286 285 283 282 279 275 274 276 275 274 273 271 271 271 269 267
332 333 330 324 319 318 318 318 320 322 319 317 316 314 311 308 304 302 299 296 295 293 291 290 289 285 283 283 281 278 277 274 271 273 274 273 272 270 270 270 267 263
330 331 326 320 316 318 323 325 325 325 323 321 318 315 310 305 303 303 302 298 293 291 290 288 287 285 281 280 280 275 272 271 269 269 271 270 269 268 268 271 269 263
328 327 323 319 321 325 328 330 328 326 324 321 319 316 313 309 306 302 301 298 293 291 290 287 286 286 282 278 278 275 271 268 267 266 266 266 265 263 261 264 267 265
325 324 323 323 326 330 331 330 328 326 323 320 319 317 314 313 311 305 300 297 295 295 293 290 286 285 283 280 279 279 275 270 268 266 265 264 264 264 260 258 261 261
324 324 325 328 332 333 332 329 327 324 323 321 320 318 316 314 312 307 303 301 300 299 298 296 291 288 288 286 284 283 280 276 272 270 267 264 261 264 266 264 264 263
326 327 331 334 336 335 332 329 326 325 324 322 320 319 318 315 311 308 307 306 304 302 301 300 297 295 295 293 290 287 284 281 277 272 269 266 260 260 264 265 267 269
331 335 338 338 337 335 331 329 327 325 324 323 320 319 318 315 313 311 309 309 307 305 303 302 300 299 299 297 295 292 287 284 281 275 268 265 259 254 257 261 264 266
340 342 341 339 337 335 332 329 327 325 324 322 320 319 318 316 315 314 312 311 309 307 305 303 300 299 300 301 300 296 291 288 285 281 272 261 253 249 251 257 261 262
346 346 343 340 338 335 331 329 327 325 324 322 319 317 317 316 315 314 312 312 310 308 306 303 301 301 302 303 302 300 296 292 288 284 276 263 253 248 247 251 256 258
349 346 343 341 338 335 331 327 326 324 323 321 318 315 314 314 314 313 312 312 312 312 309 305 304 304 304 305 304 303 302 297 291 286 277 264 255 252 251 251 254 256
351 347 343 340 337 332 328 325 323 322 321 320 318 316 315 315 315 313 313 314 313 314 312 308 306 307 307 307 306 305 305 304 299 292 281 268 256 252 255 255 255 255
351 347 343 338 334 329 325 322 321 320 320 320 318 315 314 315 315 313 314 316 315 316 314 309 307 308 307 306 307 308 310 310 306 300 287 273 257 247 249 252 255 255
350 347 344 337 331 327 323 321 321 320 320 320 318 316 315 315 315 314 315 318 319 318 316 312 309 309 309 309 311 312 313 311 307 304 294 280 262 242 240 243 250 255
350 348 345 337 330 327 324 322 322 321 322 322 321 320 318 316 316 316 316 318 321 320 319 317 312 309 311 316 316 314 314 313 310 307 302 293 277 253 238 237 245 253